Showing default

LKW-1, 43034

Orbit data source: Space-Track

LKW-1, 43034 is a Chinese payload satellite in SSO that was launched on Sun, 03 Dec 2017 UTC via a CHANG ZHENG 2D launch vehicle from the Jiuquan Satellite Launch Center, China (JSC). Payload-class satellites include a variety of spacecraft equipped with specific instruments for various scientific and technological missions. These include communications satellites like Starlink; space stations such as the ISS; scientific satellites like the Hubble; Earth observation satellites from companies like Planet Labs, Umbra, and HawkEye 360; GPS; miniature CubeSats for education and research; and military/defense satellites.

Loading next visibility...
Identifier
43034, 2017-077A
Orbit
SSO
Country
Flag of CNCN / PRC
Related business
Manufacturer
CAST?
Mission
Operational Defense Imaging
Bus & Motor
LKW, Unknown motor
Mass
~2,000 kg wet, ~2,000 kg dry
Launch date (UTC)
2017-12-03 (8 years ago)
Launch vehicle
CHANG ZHENG 2D
Launch site
Jiuquan Satellite Launch Center, China (JSC)
Object type
Payload
Rocket body
Debris
Shape & HBR
Hex Cyl + 3 Pan, 5.0 m
Radar Cross Section
8.135 m², Large (>1 m²)

Expand to show TLE details & history
Last TLE update: 9 hours ago

TLE from 9 hours ago
0 LKW-1
1 43034U 17077A   25258.62592260  .00006321  00000-0  26621-3 0  9992
2 43034  97.1396 301.9196 0004102 124.1434 236.0194 15.23676970432893
Epoch: 2025-09-15T15:01Z
TLE epoch observation values (Epoch: 2025-09-15T15:01:19.712Z)
Latitude
0.00003°
Longitude
81.75958°
Altitude
499.441 km
Speed
7.614 km/s
True Right ascension
20h 07m 40s
True Declination
0° 00' 00"
Sunlit
Object was in full shadow at epoch
Visualization orbit readout
Latitude
Unknown
Longitude
Unknown
Altitude
Unknown
Speed
Unknown
Apparent Right ascension
Unknown
Apparent Declination
Unknown
Sunlit
N/A
Visualization observer readout
Local Sidereal Time
16:28:47
Azimuth
Unknown
Elevation
Unknown
Doppler factor
Unknown
Orbital elements
Apogee altitude
494.529 km
Perigee altitude
488.893 km
Semi-major axis
6,869.848 km
Eccentricity
0.00041
Inclination
97.1396°
RAAN
301.9196°
Arg. of periapsis
124.1434°
True anomaly
235.98043°
Mean anomaly
236.0194°
Eccentric anomaly
235.99992°
Mean motion
3.81173 °/min
Orbital period
94.45 mins
BSTAR
0.00026621
Loading maneuver chart data...
Computing Atmospheric mass density...
Loading historical data...
Loading historical data...
Loading historical data...
Loading historical data...
Loading historical data...
Loading historical data...
Loading historical data...

Documentation

Showing up to 5 results
|